DECAYED

STARLINK-1923, 46754 (Decayed)

Orbit data source: Space-Track

STARLINK-1923, 46754 was a payload satellite owned by SpaceX/Seattle (US) in LEO that was launched on Sat, 24 Oct 2020 UTC via an FALCON 9 launch vehicle from the Air Force Eastern Test Range (AFETR). Payload-class satellites include a variety of spacecraft equipped with specific instruments for various scientific and technological missions. These include communications satellites like Starlink; space stations such as the ISS; scientific satellites like the Hubble; Earth observation satellites from companies like Planet Labs, Umbra, and HawkEye 360; GPS; miniature CubeSats for education and research; and military/defense satellites.

Not visible in the next 10 days
Identifier
46754, 2020-074R
Orbit
Decayed
Last TLE update
7 months ago
Origin
Manufacturer
SpaceX/Seattle
Mission
Decayed Commercial Communications
Bus & Motor
STARLINK, Unknown motor
Mass
260 kg wet, ~248 kg dry
Launch date (UTC)
2020-10-24 (5 years ago)
Launch vehicle
FALCON 9
Launch site
Air Force Eastern Test Range (AFETR)
Object type
Payload
Rocket body
Debris
Shape & HBR
Box + 1 Pan, 8.86 m
Radar Cross Section
13.562 m², Large (>1 m²)

Expand to show TLE details & history

TLE from 7 months ago
0 STARLINK-1923
1 46754U 20074R   24336.92810682  .12800429  12208-4  11940-2 0  9993
2 46754  53.0296 206.0431 0007043 216.4365 245.0377 16.37847989227393
Epoch: 2024-12-01T22:16Z
TLE epoch observation values (Epoch: 2024-12-01T22:16:28.429Z)
Latitude
51.71006°
Longitude
-90.77717°
Altitude
179.629 km
Speed
7.804 km/s
True Right ascension
20h 58m 24s
True Declination
51° 31' 40"
Sunlit
Object was in daylight at epoch
Visualization orbit readout
Visualization observer readout
Orbital elements
Apogee altitude
176.437 km
Perigee altitude
167.21 km
Semi-major axis
6,549.96 km
Eccentricity
0.0007
Inclination
53.0296°
RAAN
206.0431°
Arg. of periapsis
216.4365°
True anomaly
Unknown
Mean anomaly
245.0377°
Eccentric anomaly
Unknown
Mean motion
4.09435 °/min
Orbital period
87.93 mins
BSTAR
0.001194
Loading maneuver chart data...
Loading SW <> Apogee altitude chart data...

STARLINK-1923 Visibility

Observer location: undefined°, undefined°

This satellite is decayed
Span
Click to sort rows by Start time (UTC) header in descending order
Start Az.
Max El. time (UTC)
Max El. Az.
Max El.
End time (UTC)
End Az.
|